Weather in Zheltysuy

Kazakhstan     40°46′27″N   68°19′38″E
temp.,
°C
wind,
m/s
gust,
m/s
humid.,
%
clouds,
%
prec.,
mm/h
press.,
hPa
HPBL,
m
8 may, sat
sat800:00+25ene113768 0.0 101314
03:00+23ese1248100 0.0 101311
06:00+22ese115413 0.0 101311
09:00+25se114496 0.0 1014270
12:00+30nnw11311 0.0 10141353
15:00+33n22240 0.0 10122856
18:00+32ne43245 0.0 10112040
21:00+29ne233097 0.1 101166
9 may, sun
sun900:00+26ene343472 0.1 101154
03:00+24e224426 0.0 100916
06:00+22w3741100 0.1 1010134
09:00+21nnw91248100 0.1 1014774
12:00+24nne334235 0.3 1014984
15:00+27nnw543696 0.0 10131366
18:00+26n443786 0.0 10131145
21:00+24ene2442100 0.0 1014145
10 may, mon
mon1000:00+22e24519 0.0 1013103
03:00+20nne365941 0.0 1011137
06:00+19n2658100 0.0 1011168
09:00+21n464692 0.0 1012450
12:00+26n563197 0.0 10121187
15:00+27nnw6623100 0.0 10111428
18:00+25nne3523100 0.0 10111150
21:00+22n3531100 0.0 101289
11 may, tue
tue1100:00+19n34381 0.1 101360
03:00+17nnw384777 0.0 1013153
06:00+15nw22541 0.0 101425
09:00+20nnw34410 0.0 1015373
12:00+25n56260 0.0 10151513
15:00+28n55190 0.0 10142089
18:00+28n55164 0.0 10142169
21:00+22n362982 0.0 101586
12 may, wed
wed1200:00+20n47370 0.0 1015118
03:00+18nne36440 0.0 101598
06:00+16wsw11490 0.0 101511
09:00+21nne22400 0.0 1015292
12:00+26nne44270 0.0 10151890
15:00+29n44220 0.0 10132232
18:00+29n55230 0.0 10122210
21:00+23nne48360 0.0 1012161